DW2589 Scituate MA US current weather conditions

sailwx.info

Wind from 075 at 0 knots gusting 4

Air temperature -2.8° C
Dewpoint -7.3° C

Last reported at 2019-Dec-07 13:06 UTC.
Time now 2019-Dec-07 14:16 UTC

Location: N 42°11' W 070°46'.
View on Google Maps.

See reports from other nearby stations

  
Tides and Currents Weather Stations Pressure Air Temp Water Temp Dewpoint Dewpoint Depression Visibility Wind Speed Wind Dir Waves Ship Positions
date/time (UTC)wind fromknots sea level pressurealtimeterstation pressurevisibilityair tempwater tempwave heightnotes
2019-Dec-07 13:06 075 0 gusting 4 -2.8
2019-Dec-07 13:01 110 -2.8
2019-Dec-07 12:51 049 -3.3
2019-Dec-07 12:46 115 -3.3
2019-Dec-07 12:40 117 -3.3
2019-Dec-07 12:35 269 -3.3
2019-Dec-07 12:30 137 -3.3
2019-Dec-07 12:25 070 -3.3
2019-Dec-07 12:20 239 -3.3
2019-Dec-07 12:15 063 -3.3
2019-Dec-07 12:10 302 -3.3
2019-Dec-07 12:05 316 -3.3
2019-Dec-07 12:00 060 -3.3
2019-Dec-07 11:55 037 -3.3
2019-Dec-07 11:50 072 -3.3
2019-Dec-07 11:45 259 -3.3
2019-Dec-07 11:40 031 -3.3
2019-Dec-07 11:35 027 -3.3
2019-Dec-07 11:30 082 -3.3
2019-Dec-07 11:25 201 0 gusting 4 -3.3
2019-Dec-07 11:20 116 -3.3
2019-Dec-07 11:15 009 -3.3
2019-Dec-07 11:10 058 -3.3
2019-Dec-07 11:05 108 -3.3
2019-Dec-07 11:00 289 -3.3
2019-Dec-07 10:55 274 -3.3
2019-Dec-07 10:50 259 0 gusting 3 -2.8
2019-Dec-07 10:45 022 0 gusting 3 -2.8
2019-Dec-07 10:40 035 0 gusting 3 -2.8
2019-Dec-07 10:35 029 0 gusting 3 -2.8
2019-Dec-07 10:30 039 -2.8
2019-Dec-07 10:25 103 -3.3
2019-Dec-07 10:20 184 -2.8
2019-Dec-07 10:15 353 -2.8
2019-Dec-07 10:10 122 -2.8
2019-Dec-07 10:05 230 -2.8
2019-Dec-07 10:00 286 -2.8
2019-Dec-07 09:55 320 0 gusting 4 -2.8
2019-Dec-07 09:50 091 0 gusting 4 -2.8
2019-Dec-07 09:45 099 0 gusting 5 -2.8
2019-Dec-07 09:40 259 0 gusting 5 -2.8
2019-Dec-07 09:35 -2.8
2019-Dec-07 09:30 091 -2.8
2019-Dec-07 09:25 039 -2.8
2019-Dec-07 09:20 065 -2.8
2019-Dec-07 09:15 229 -2.8
2019-Dec-07 09:10 132 -2.2
2019-Dec-07 09:05 089 0 gusting 2 -2.2
2019-Dec-07 09:00 179 0 gusting 2 -2.2
2019-Dec-07 08:55 106 -2.2
2019-Dec-07 08:50 024 0 gusting 4 -2.2
2019-Dec-07 08:45 240 -2.2
2019-Dec-07 08:40 248 -1.7
2019-Dec-07 08:35 229 -1.7
2019-Dec-07 08:30 181 0 gusting 3 -1.7
2019-Dec-07 08:25 087 0 gusting 5 -1.7
2019-Dec-07 08:20 355 -1.7
2019-Dec-07 08:15 220 0 gusting 3 -1.7
2019-Dec-07 08:10 068 0 gusting 2 -1.7
2019-Dec-07 08:05 077 -1.7
2019-Dec-07 08:00 078 -1.1
2019-Dec-07 07:55 034 -1.1
2019-Dec-07 07:49 084 0 gusting 5 -1.1
2019-Dec-07 07:44 077 0 gusting 5 -1.1
2019-Dec-07 07:39 350 -1.1
2019-Dec-07 07:34 038 -1.7
2019-Dec-07 07:29 204 -1.7
2019-Dec-07 07:24 085 -1.7
2019-Dec-07 07:19 084 -1.7
2019-Dec-07 07:14 330 -1.7
2019-Dec-07 07:09 058 -1.7
2019-Dec-07 07:04 141 -1.7
2019-Dec-07 06:59 089 -1.1
2019-Dec-07 06:54 082 -1.1
2019-Dec-07 06:49 200 -1.1
2019-Dec-07 06:44 057 -1.1
2019-Dec-07 06:39 328 -1.1
2019-Dec-07 06:34 337 -1.1
2019-Dec-07 06:29 191 -1.1
2019-Dec-07 06:24 352 -1.1
2019-Dec-07 06:19 331 -1.1
2019-Dec-07 06:14 116 -1.1
2019-Dec-07 06:09 099 -1.1
2019-Dec-07 06:04 105 -1.1
2019-Dec-07 05:59 272 -1.1
2019-Dec-07 05:54 094 -1.1
2019-Dec-07 05:49 084 -1.1
2019-Dec-07 05:44 062 -1.1
2019-Dec-07 05:39 084 -1.1
2019-Dec-07 05:34 084 -1.1
2019-Dec-07 05:29 103 -1.1
2019-Dec-07 05:24 103 -1.1
2019-Dec-07 05:19 063 -1.1
2019-Dec-07 05:14 067 -1.1
2019-Dec-07 05:09 044 0 gusting 4 -1.1
2019-Dec-07 05:04 316 0 gusting 4 -1.1
2019-Dec-07 04:59 309 -1.1
2019-Dec-07 04:54 110 -1.1
2019-Dec-07 04:49 064 -1.1
2019-Dec-07 04:44 261 -0.6
2019-Dec-07 04:39 041 -0.6
2019-Dec-07 04:34 267 -0.6
2019-Dec-07 04:29 286 -0.6
2019-Dec-07 04:24 059 -0.6
2019-Dec-07 04:19 271 0 gusting 3 -0.6
2019-Dec-07 04:14 068 0 gusting 3 -0.6
2019-Dec-07 04:09 321 0 gusting 4 -0.6
2019-Dec-07 04:04 336 0 gusting 4 -0.6
2019-Dec-07 03:59 324 0 gusting 4 -0.6
2019-Dec-07 03:54 082 -0.0
2019-Dec-07 03:49 035 0 gusting 4 -0.0
2019-Dec-07 03:44 239 0 gusting 4 -0.0
2019-Dec-07 03:39 037 0 gusting 2 -0.0
2019-Dec-07 03:34 081 -0.0
2019-Dec-07 03:29 088 -0.0
2019-Dec-07 03:24 098 -0.0
2019-Dec-07 03:19 233 -0.0
2019-Dec-07 03:14 115 -0.0
2019-Dec-07 03:09 105 -0.0
2019-Dec-07 03:04 105 -0.0
2019-Dec-07 02:59 169 -0.0
2019-Dec-07 02:54 073 -0.6
2019-Dec-07 02:49 278 -0.6
2019-Dec-07 02:44 278 -0.6
2019-Dec-07 02:39 278 -0.6
2019-Dec-07 02:34 278 -0.6
2019-Dec-07 02:29 278 -0.0
2019-Dec-07 02:24 278 -0.0
2019-Dec-07 02:19 278 -0.0
2019-Dec-07 02:14 278 -0.0
2019-Dec-07 02:09 278 -0.0
2019-Dec-07 02:04 278 -0.0
2019-Dec-07 01:59 278 -0.0
2019-Dec-07 01:54 278 0.6
2019-Dec-07 01:49 278 0.6
2019-Dec-07 01:44 278 0.6
2019-Dec-07 01:39 278 0.6
2019-Dec-07 01:34 278 0.6
2019-Dec-07 01:29 278 0.6
2019-Dec-07 01:24 278 0.6
2019-Dec-07 01:19 278 0.6
2019-Dec-07 01:14 278 0.6
2019-Dec-07 01:09 278 0.6
2019-Dec-07 01:04 278 0.6
2019-Dec-07 00:59 278 0.6
2019-Dec-07 00:54 278 0.6
2019-Dec-07 00:49 278 0.6
2019-Dec-07 00:44 278 0.6
2019-Dec-07 00:39 278 0.6
2019-Dec-07 00:33 278 0.6
2019-Dec-07 00:28 278 0.6
2019-Dec-07 00:23 278 0.6
2019-Dec-07 00:18 278 0.6
2019-Dec-07 00:13 278 0.6
2019-Dec-07 00:08 279 0.6
2019-Dec-07 00:03 278 0.6
2019-Dec-06 23:58 279 0.6
2019-Dec-06 23:53 279 0.6
2019-Dec-06 23:48 279 0.6
2019-Dec-06 23:43 279 0.6
2019-Dec-06 23:38 279 0.6
2019-Dec-06 23:33 278 0.6
2019-Dec-06 23:28 279 0.6
2019-Dec-06 23:23 278 0.6
2019-Dec-06 23:18 279 0.6
2019-Dec-06 23:13 278 0.6
2019-Dec-06 23:08 278 0.6
2019-Dec-06 23:03 278 0.6
2019-Dec-06 22:58 020 0.6
2019-Dec-06 22:53 020 0.6
2019-Dec-06 22:48 020 0.6
2019-Dec-06 22:43 020 -0.0
2019-Dec-06 22:38 020 -0.0
2019-Dec-06 22:33 020 -0.0
2019-Dec-06 22:28 020 -0.0
2019-Dec-06 22:23 020 -0.0
2019-Dec-06 22:18 020 -0.0
2019-Dec-06 22:13 020 -0.0
2019-Dec-06 22:08 020 -0.0
2019-Dec-06 22:03 020 -0.0
2019-Dec-06 21:58 106 -0.0
2019-Dec-06 21:53 107 -0.0
2019-Dec-06 21:48 106 -0.0
2019-Dec-06 21:43 107 -0.0
2019-Dec-06 21:38 107 -0.0
2019-Dec-06 21:33 107 -0.0
2019-Dec-06 21:28 107 -0.0
2019-Dec-06 21:23 106 -0.0
2019-Dec-06 21:18 107 -0.0
2019-Dec-06 21:13 106 -0.0
2019-Dec-06 21:08 106 -0.0
2019-Dec-06 21:03 110 -0.0
2019-Dec-06 20:58 108 -0.0
2019-Dec-06 20:53 108 0.6
2019-Dec-06 20:48 150 0.6
2019-Dec-06 20:43 169 0.6
2019-Dec-06 20:38 169 0.6
2019-Dec-06 20:33 169 0.6
2019-Dec-06 20:28 169 1.1
2019-Dec-06 20:23 169 1.1
2019-Dec-06 20:18 155 0 gusting 3 1.1
2019-Dec-06 20:13 237 0 gusting 3 1.1
2019-Dec-06 20:08 205 1.1
2019-Dec-06 20:03 233 1.7
2019-Dec-06 19:58 245 1.7
2019-Dec-06 19:53 217 1.7
2019-Dec-06 19:48 217 1.1
2019-Dec-06 19:43 217 1.1
2019-Dec-06 19:38 217 1.1
2019-Dec-06 19:33 217 1.1
2019-Dec-06 19:28 217 1.1
2019-Dec-06 19:23 217 1.1
2019-Dec-06 19:18 207 1.1
2019-Dec-06 19:13 152 1.1
2019-Dec-06 19:08 152 1.1
2019-Dec-06 19:03 153 1.1
2019-Dec-06 18:58 153 1.1
2019-Dec-06 18:53 243 1.1
2019-Dec-06 18:48 243 1.1
2019-Dec-06 18:43 222 0 gusting 1 1.1
2019-Dec-06 18:38 221 0 gusting 1 1.1
2019-Dec-06 18:33 235 0 gusting 3 0.6
2019-Dec-06 18:28 234 0 gusting 4 0.6
2019-Dec-06 18:23 196 1 gusting 4 0.6
2019-Dec-06 18:18 217 0 gusting 3 0.6
2019-Dec-06 18:13 230 0 gusting 2 0.6
2019-Dec-06 18:08 243 0 gusting 5 0.6
2019-Dec-06 18:03 233 0 gusting 5 0.6
2019-Dec-06 17:58 178 0 gusting 4 0.6
2019-Dec-06 17:53 229 1 gusting 4 0.6
2019-Dec-06 17:48 216 0 gusting 3 0.6
2019-Dec-06 17:43 213 0 gusting 2 0.6
2019-Dec-06 17:37 236 0 gusting 2 0.6
2019-Dec-06 17:32 239 0 gusting 1 0.6
2019-Dec-06 17:27 234 0 gusting 2 0.6
2019-Dec-06 17:22 241 0 gusting 4 0.6
2019-Dec-06 17:17 253 1 gusting 6 1.1
2019-Dec-06 17:12 234 0 gusting 6 1.1
2019-Dec-06 17:07 238 0 gusting 3 1.1
2019-Dec-06 17:02 223 1 gusting 3 0.6
2019-Dec-06 16:57 252 1 gusting 5 0.6
2019-Dec-06 16:52 236 1 gusting 5 0.6
2019-Dec-06 16:47 172 1 gusting 5 0.6
2019-Dec-06 16:42 213 1 gusting 5 0.6
2019-Dec-06 16:37 245 1 gusting 6 0.6
2019-Dec-06 16:32 219 1 gusting 6 1.1
2019-Dec-06 16:27 229 0 gusting 3 1.1
2019-Dec-06 16:22 102 0 gusting 4 1.1
2019-Dec-06 16:17 250 1 gusting 4 1.1
2019-Dec-06 16:12 232 0 gusting 4 0.6
2019-Dec-06 16:07 234 1 gusting 5 0.6
2019-Dec-06 16:02 239 0 gusting 5 0.6
2019-Dec-06 15:57 234 1 gusting 6 0.6
2019-Dec-06 15:52 236 1 gusting 6 0.6
2019-Dec-06 15:47 239 1 gusting 5 0.6
2019-Dec-06 15:42 236 1 gusting 5 0.6
2019-Dec-06 15:37 238 0 gusting 3 0.6
2019-Dec-06 15:32 229 0 gusting 3 0.6
2019-Dec-06 15:27 214 1 gusting 3 -0.0
2019-Dec-06 15:22 172 0 gusting 3 -0.0
2019-Dec-06 15:17 251 0 gusting 3 -0.0
2019-Dec-06 15:12 248 0 gusting 3 -0.0
2019-Dec-06 15:07 264 0 gusting 6 -0.0
2019-Dec-06 15:02 243 0 gusting 6 -0.0
2019-Dec-06 14:57 248 0 gusting 1 -0.6
2019-Dec-06 14:52 269 0 gusting 3 -0.6
2019-Dec-06 14:47 256 0 gusting 3 -0.6
2019-Dec-06 14:42 228 0 gusting 5 -0.6
2019-Dec-06 14:37 235 0 gusting 5 -0.6
2019-Dec-06 14:32 226 0 gusting 3 -0.6
2019-Dec-06 14:27 240 0 gusting 2 -0.6
2019-Dec-06 14:22 241 0 gusting 2 -1.1
2019-Dec-06 14:17 220 0 gusting 2 -1.1
2019-Dec-06 14:12 266 0 gusting 2 -1.1
2019-Dec-06 14:07 242 -1.1
2019-Dec-06 14:02 245 -1.1
2019-Dec-06 13:57 219 -1.7
2019-Dec-06 13:52 237 0 gusting 2 -1.7
2019-Dec-06 13:47 255 0 gusting 2 -1.7
2019-Dec-06 13:42 233 0 gusting 1 -1.7
2019-Dec-06 13:37 250 -1.7
2019-Dec-06 13:32 229 -1.7
2019-Dec-06 13:27 247 -1.7
2019-Dec-06 13:22 210 -2.2
2019-Dec-06 13:17 226 -2.2
2019-Dec-06 13:12 187 -2.2
2019-Dec-06 13:07 233 -2.2
2019-Dec-06 13:02 214 -2.8
2019-Dec-06 12:57 241 -2.8
2019-Dec-06 12:52 254 -2.8
2019-Dec-06 12:47 232 -3.3
2019-Dec-06 12:42 235 -3.3
2019-Dec-06 12:37 235 -3.3
2019-Dec-06 12:32 235 -3.3
2019-Dec-06 12:27 235 -3.3
2019-Dec-06 12:22 234 -3.3
2019-Dec-06 12:17 234 -3.3
2019-Dec-06 12:12 238 -3.3
2019-Dec-06 12:07 238 -3.3
2019-Dec-06 12:02 239 -3.3
2019-Dec-06 11:57 238 -3.3
2019-Dec-06 11:52 232 -3.3
2019-Dec-06 11:47 232 -3.9
2019-Dec-06 11:42 232 -3.9
2019-Dec-06 11:37 225 -3.9
2019-Dec-06 11:32 236 -3.9
2019-Dec-06 11:27 236 -3.3
2019-Dec-06 11:22 236 -3.9
2019-Dec-06 11:16 236 -3.9
2019-Dec-06 11:11 236 -3.9
2019-Dec-06 11:06 236 -3.9
2019-Dec-06 11:01 242 -3.9
2019-Dec-06 10:56 242 -3.9
2019-Dec-06 10:51 243 -3.9
2019-Dec-06 10:46 243 -3.3
2019-Dec-06 10:41 243 -3.3
2019-Dec-06 10:36 243 -3.3
2019-Dec-06 10:31 242 -3.3
2019-Dec-06 10:26 243 -3.3
2019-Dec-06 10:21 246 -3.3
2019-Dec-06 10:16 246 -3.3
2019-Dec-06 10:11 246 -3.3
2019-Dec-06 10:06 260 -3.3
2019-Dec-06 10:01 262 -3.3
2019-Dec-06 09:56 260 -3.3
2019-Dec-06 09:51 264 -3.3
2019-Dec-06 09:46 261 -3.3
2019-Dec-06 09:41 250 -2.8
2019-Dec-06 09:36 263 -2.8
2019-Dec-06 09:31 254 -2.8
2019-Dec-06 09:26 254 -2.8
2019-Dec-06 09:21 257 -2.8
2019-Dec-06 09:16 260 -2.8
2019-Dec-06 09:11 259 -2.8
2019-Dec-06 09:06 274 -2.8
2019-Dec-06 09:01 239 -2.8
2019-Dec-06 08:56 257 -2.8
2019-Dec-06 08:51 264 -2.8
2019-Dec-06 08:46 258 -2.8
2019-Dec-06 08:41 265 -2.8
2019-Dec-06 08:36 264 -2.8
2019-Dec-06 08:31 264 -2.8
2019-Dec-06 08:26 268 -2.8
2019-Dec-06 08:21 251 -3.3
2019-Dec-06 08:16 201 -3.3
2019-Dec-06 08:11 191 -3.3
2019-Dec-06 08:06 191 -3.3
2019-Dec-06 08:01 191 -3.3
2019-Dec-06 07:56 191 -2.8
2019-Dec-06 07:51 116 -2.8
2019-Dec-06 07:46 116 -2.8
2019-Dec-06 07:41 248 -2.8
2019-Dec-06 07:36 248 -2.8
2019-Dec-06 07:31 248 -2.2
2019-Dec-06 07:26 248 -2.2
2019-Dec-06 07:21 096 -2.2
2019-Dec-06 07:16 257 -2.2
2019-Dec-06 07:11 236 -2.2
2019-Dec-06 07:06 242 -2.2
2019-Dec-06 07:01 219 -2.2
2019-Dec-06 06:56 242 -2.2
2019-Dec-06 06:51 134 -2.2
2019-Dec-06 06:46 139 -2.2
2019-Dec-06 06:41 134 -2.2
2019-Dec-06 06:36 262 -2.2
2019-Dec-06 06:31 262 -1.7
2019-Dec-06 06:26 149 -1.7
2019-Dec-06 06:21 102 -1.7
2019-Dec-06 06:16 285 -1.7
2019-Dec-06 06:11 252 -1.7
2019-Dec-06 06:06 266 -1.7
2019-Dec-06 06:00 231 -1.7
2019-Dec-06 05:55 104 0 gusting 8 -1.7
2019-Dec-06 05:50 086 0 gusting 8 -1.7
2019-Dec-06 05:45 278 0 gusting 4 -1.7
2019-Dec-06 05:40 274 0 gusting 6 -1.7
2019-Dec-06 05:35 250 0 gusting 6 -1.7
2019-Dec-06 05:30 212 0 gusting 5 -1.7
2019-Dec-06 05:25 203 0 gusting 5 -1.7
2019-Dec-06 05:20 270 0 gusting 5 -1.7
2019-Dec-06 05:15 259 0 gusting 6 -1.7
2019-Dec-06 05:10 046 -1.7
2019-Dec-06 05:05 278 -1.1
2019-Dec-06 05:00 014 -1.1
2019-Dec-06 04:55 112 -1.1
2019-Dec-06 04:50 126 -1.1
2019-Dec-06 04:45 004 -1.1
2019-Dec-06 04:40 094 -1.1
2019-Dec-06 04:35 131 0 gusting 5 -1.1
2019-Dec-06 04:30 257 0 gusting 5 -1.1
2019-Dec-06 04:25 258 -1.1
2019-Dec-06 04:20 056 -0.6
2019-Dec-06 04:15 139 -0.6
2019-Dec-06 04:10 248 -0.6
2019-Dec-06 04:05 257 0 gusting 4 -0.6
2019-Dec-06 04:00 267 0 gusting 5 -0.6
2019-Dec-06 03:55 219 0 gusting 5 -0.6
2019-Dec-06 03:50 227 -0.6
2019-Dec-06 03:45 271 0 gusting 3 -0.6
2019-Dec-06 03:40 284 0 gusting 3 -0.6
2019-Dec-06 03:35 252 0 gusting 3 -0.6
2019-Dec-06 03:30 264 -0.6
2019-Dec-06 03:25 267 -0.6
2019-Dec-06 03:20 282 -0.6
2019-Dec-06 03:15 217 -0.6
2019-Dec-06 03:10 123 0 gusting 2 -0.6
2019-Dec-06 03:05 300 -0.6
2019-Dec-06 03:00 257 -0.0
2019-Dec-06 02:55 218 0 gusting 2 -0.0
2019-Dec-06 02:50 271 -0.0
2019-Dec-06 02:45 264 -0.0
2019-Dec-06 02:40 324 0 gusting 5 -0.0
2019-Dec-06 02:35 243 0 gusting 5 -0.0
2019-Dec-06 02:25 333 0 gusting 4 -0.0
2019-Dec-06 02:20 109 -0.0
2019-Dec-06 02:15 263 -0.0
2019-Dec-06 02:10 243 -0.0
2019-Dec-06 02:05 185 -0.0
2019-Dec-06 02:00 217 0 gusting 2 -0.0
2019-Dec-06 01:55 236 0 gusting 3 -0.0
2019-Dec-06 01:50 107 0 gusting 3 0.6
2019-Dec-06 01:45 245 0 gusting 2 0.6
2019-Dec-06 01:40 258 -0.0
2019-Dec-06 01:35 289 0.6
2019-Dec-06 01:30 259 0.6
2019-Dec-06 01:25 221 0.6
2019-Dec-06 01:20 293 0 gusting 2 0.6
2019-Dec-06 01:15 248 0 gusting 2 0.6
2019-Dec-06 01:10 270 0 gusting 1 0.6
2019-Dec-06 01:05 270 0 gusting 2 0.6
2019-Dec-06 01:00 274 0 gusting 2 0.6
2019-Dec-06 00:55 248 0.6
2019-Dec-06 00:50 256 0 gusting 1 0.6
2019-Dec-06 00:44 272 1.1
2019-Dec-06 00:39 265 1.1
2019-Dec-06 00:34 265 1.1
2019-Dec-06 00:29 203 0 gusting 1 1.1
2019-Dec-06 00:24 264 0 gusting 2 1.1
2019-Dec-06 00:19 277 0 gusting 2 1.7
2019-Dec-06 00:14 248 0 gusting 2 1.7
2019-Dec-06 00:09 271 0 gusting 2 1.7
2019-Dec-06 00:04 260 0 gusting 2 1.7
2019-Dec-05 23:59 244 0 gusting 2 1.7
2019-Dec-05 23:54 274 0 gusting 1 1.7
2019-Dec-05 23:49 269 0 gusting 1 2.2
2019-Dec-05 23:44 247 0 gusting 1 2.2
2019-Dec-05 23:39 255 0 gusting 1 2.2
2019-Dec-05 23:34 271 2.2
2019-Dec-05 23:29 186 2.2
2019-Dec-05 23:24 112 0 gusting 4 2.8
2019-Dec-05 23:19 281 2.8
2019-Dec-05 23:14 254 2.8
2019-Dec-05 23:09 205 0 gusting 3 2.8
2019-Dec-05 23:04 017 0 gusting 6 2.8
2019-Dec-05 22:59 245 0 gusting 6 2.8
2019-Dec-05 22:54 228 0 gusting 3 2.8
2019-Dec-05 22:49 080 0 gusting 3 2.8
2019-Dec-05 22:44 119 2.8
2019-Dec-05 22:39 086 2.8
2019-Dec-05 22:34 114 2.8
2019-Dec-05 22:29 115 2.8
2019-Dec-05 22:24 243 0 gusting 6 2.8
2019-Dec-05 22:19 091 2.8
2019-Dec-05 22:14 117 2.8
2019-Dec-05 22:09 189 0 gusting 6 2.8
2019-Dec-05 22:04 316 0 gusting 6 2.8
2019-Dec-05 21:59 271 0 gusting 2 2.8
2019-Dec-05 21:54 278 0 gusting 2 2.8
2019-Dec-05 21:49 275 0 gusting 1 3.3
2019-Dec-05 21:44 248 0 gusting 5 3.3
2019-Dec-05 21:39 222 0 gusting 5 3.3
2019-Dec-05 21:34 265 0 gusting 4 3.3
2019-Dec-05 21:29 117 0 gusting 4 3.3
2019-Dec-05 21:24 260 0 gusting 3 3.3
2019-Dec-05 21:19 222 0 gusting 2 3.3
2019-Dec-05 21:14 256 3.3
2019-Dec-05 21:09 113 3.3
2019-Dec-05 21:04 241 0 gusting 2 3.3
2019-Dec-05 20:59 261 3.3
2019-Dec-05 20:54 181 3.3
2019-Dec-05 20:49 198 3.3
2019-Dec-05 20:44 252 3.3
2019-Dec-05 20:39 246 3.3
2019-Dec-05 20:34 109 3.9
2019-Dec-05 20:29 243 3.9
2019-Dec-05 20:24 267 3.9
2019-Dec-05 20:19 249 3.9
2019-Dec-05 20:14 212 3.9
2019-Dec-05 20:09 217 0 gusting 2 3.9
2019-Dec-05 20:04 264 0 gusting 3 3.9
2019-Dec-05 19:59 089 0 gusting 3 3.9
2019-Dec-05 19:54 257 0 gusting 1 4.4
2019-Dec-05 19:49 222 0 gusting 3 4.4
2019-Dec-05 19:44 264 0 gusting 3 4.4
2019-Dec-05 19:39 257 0 gusting 2 4.4
2019-Dec-05 19:34 259 0 gusting 2 4.4
2019-Dec-05 19:29 221 0 gusting 2 4.4
2019-Dec-05 19:24 264 4.4
2019-Dec-05 19:19 283 4.4
2019-Dec-05 19:14 282 4.4
2019-Dec-05 19:09 261 4.4
2019-Dec-05 19:04 335 4.4
2019-Dec-05 18:59 335 4.4
2019-Dec-05 18:54 136 4.4
2019-Dec-05 18:49 258 5.0
2019-Dec-05 18:44 238 5.0
2019-Dec-05 18:39 202 5.6
2019-Dec-05 18:34 274 0 gusting 4 5.6
2019-Dec-05 18:29 281 0 gusting 4 6.1
2019-Dec-05 18:24 257 0 gusting 3 5.6
2019-Dec-05 18:19 273 0 gusting 3 5.6
2019-Dec-05 18:14 208 0 gusting 3 5.0
2019-Dec-05 18:09 266 0 gusting 3 5.0
2019-Dec-05 18:04 121 0 gusting 3 5.0
2019-Dec-05 17:59 300 0 gusting 2 5.0
2019-Dec-05 17:54 262 0 gusting 2 5.0
2019-Dec-05 17:49 089 0 gusting 6 5.6
2019-Dec-05 17:44 156 0 gusting 6 5.6
2019-Dec-05 17:39 258 1 gusting 3 5.0
2019-Dec-05 17:34 167 1 gusting 4 5.0
2019-Dec-05 17:29 290 1 gusting 4 5.0
2019-Dec-05 17:24 135 0 gusting 4 5.0
2019-Dec-05 17:19 246 0 gusting 3 5.0
2019-Dec-05 17:14 262 0 gusting 2 5.0
2019-Dec-05 17:09 235 0 gusting 3 5.0
2019-Dec-05 17:04 257 0 gusting 3 5.0
2019-Dec-05 16:59 277 0 gusting 6 5.0
2019-Dec-05 16:54 034 0 gusting 6 5.0
2019-Dec-05 16:48 210 0 gusting 5 5.0
2019-Dec-05 16:43 072 0 gusting 5 5.0
2019-Dec-05 16:38 015 0 gusting 5 4.4
2019-Dec-05 16:33 142 0 gusting 5 4.4
2019-Dec-05 16:28 108 0 gusting 2 4.4
2019-Dec-05 16:23 264 0 gusting 5 4.4
2019-Dec-05 16:18 246 0 gusting 5 4.4
2019-Dec-05 16:13 272 0 gusting 4 4.4
2019-Dec-05 16:08 191 0 gusting 3 4.4
2019-Dec-05 16:03 259 0 gusting 4 4.4
2019-Dec-05 15:58 278 0 gusting 4 4.4
2019-Dec-05 15:53 173 0 gusting 3 4.4
2019-Dec-05 15:48 255 0 gusting 2 4.4
2019-Dec-05 15:43 211 0 gusting 1 3.9
2019-Dec-05 15:38 281 0 gusting 3 3.9
2019-Dec-05 15:33 222 0 gusting 5 3.9
2019-Dec-05 15:28 259 0 gusting 5 3.9
2019-Dec-05 15:23 134 3.9
2019-Dec-05 15:18 072 3.3
2019-Dec-05 15:13 148 3.3
2019-Dec-05 15:08 266 3.3
2019-Dec-05 15:03 251 3.3
2019-Dec-05 14:58 142 3.3
2019-Dec-05 14:53 276 2.8
2019-Dec-05 14:48 136 2.8
2019-Dec-05 14:43 269 2.8
2019-Dec-05 14:38 247 2.8
2019-Dec-05 14:33 241 2.2
2019-Dec-05 14:28 233 2.2
2019-Dec-05 14:23 264 2.2
2019-Dec-05 14:18 254 1.7
2019-Dec-05 14:13 271 1.7
2019-Dec-05 14:08 230 1.1
2019-Dec-05 14:03 175 1.1